TIME,DELAY(SENSOR),PRES,OXYGEN,RAWTEMP,T(OPTODE),TCPHASE,FLUOR,BETA(BETA700),BETA(BETA412),BETA(BETA440),CDOM,C(CSC),ED(ED412.20),ED(ED444.00),ED(ED489.60),ED(ED554.30),LU(LU412.10),LU(LU443.90),LU(LU489.70),LU(LU554.70),COMP,TILTX,TILTY,CHECK
1339039093,5809,902.7000122070312000,32.8861999511718750,565.6431274414062000,4.3108730316162110,56.6728706359863300,56,99,100,77,83,15518,0,0,0,0,2147121481,2147775725,2147571126,2147571931,713,2,13,40423
1339042689,5808,971.6599731445312000,39.1871185302734400,572.5811767578125000,4.0953221321105960,55.7648086547851560,55,98,100,78,84,15521,0,0,0,0,2147122496,2147774838,2147575104,2147574966,2993,2,13,42140
1339046289,5810,983.9500122070312000,40.2940902709960940,573.6063232421875000,4.0634369850158690,55.6068611145019500,55,99,102,79,83,15495,0,0,0,0,2147122468,2147768914,2147575113,2147572333,3332,2,13,29921
1339049889,5809,992.3599853515625000,40.3548202514648440,574.3333740234375000,4.0408167839050290,55.6087989807128900,56,99,100,78,84,15492,0,0,0,0,2147124461,2147770806,2147574948,2147572324,3508,2,13,34682
1339053489,5810,991.0800170898438000,40.3432083129882800,574.7363281250000000,4.0282821655273440,55.6117210388183600,56,99,102,78,83,15525,0,0,0,0,2147125814,2147777901,2147574820,2147569581,773,2,13,33734
1339057089,5810,997.7500000000000000,40.7206192016601560,575.4583129882812000,4.0058159828186035,55.5641098022460940,54,100,102,77,84,15524,0,0,0,0,2147120658,2147781147,2147573092,2147571446,512,2,13,39900
1339060689,5810,999.0200195312500000,40.7256088256835940,575.4777832031250000,4.0052089691162110,55.5694007873535160,55,97,102,78,83,15526,0,0,0,0,2147121353,2147776722,2147570121,2147572672,14,2,13,63509
1339064289,5808,998.6699829101562000,40.4753494262695300,575.8364868164062000,3.9940431118011475,55.6050987243652340,56,99,106,78,83,15523,0,0,0,0,2147120932,2147773787,2147569490,2147573412,491,2,13,60874
1339067889,5811,998.8699951171875000,40.8478507995605500,575.9733886718750000,3.9897799491882324,55.5539398193359400,55,98,101,77,83,15522,0,0,0,0,2147123638,2147772854,2147571849,2147572452,161,2,13,40783
1339071489,5809,997.4099731445312000,40.8405189514160160,576.0037841796875000,3.9888360500335693,55.5574188232421900,55,101,101,79,82,15520,0,0,0,0,2147124873,2147775689,2147571510,2147571026,687,2,13,5763
1339075089,5808,995.4099731445312000,40.7730484008789060,576.8294067382812000,3.9631350040435790,55.5733413696289060,55,99,101,78,85,15518,0,0,0,0,2147123227,2147776722,2147575826,2147570688,3242,2,13,39715
1339078689,5806,999.3499755859375000,41.0043411254882800,576.8790283203125000,3.9615900516510010,55.5384101867675800,55,98,100,78,84,15491,0,0,0,0,2147122614,2147778788,2147572754,2147571766,242,2,13,33994
1339082289,5810,1005.7000122070312000,40.7012710571289060,575.5817871093750000,4.0019698143005370,55.5718193054199200,56,99,103,78,84,15491,0,0,0,0,2147120594,2147776438,2147578761,2147572854,424,2,13,48197
1339085889,5810,1008.9000244140625000,40.3990592956543000,575.5717163085938000,4.0022850036621090,55.6125411987304700,55,98,101,78,84,15491,0,0,0,0,2147126326,2147773220,2147573476,2147571794,19,2,13,11386
1339089489,5807,995.0300292968750000,40.7413291931152340,576.8836059570312000,3.9614470005035400,55.5810699462890600,55,98,102,78,85,15491,0,0,0,0,2147120850,2147776649,2147571181,2147573312,3146,2,13,36427
1339093089,5810,995.9099731445312000,41.7372283935546900,577.7059936523438000,3.9358389377593994,55.4400291442871100,55,100,102,78,83,15473,0,0,0,0,2147124022,2147774774,2147577654,2147572854,3483,2,13,41325
1339096689,5807,1002.6599731445312000,42.0928497314453100,578.6403198242188000,3.9067399501800537,55.3996582031250000,54,98,102,78,83,15479,0,0,0,0,2147121188,2147775826,2147577856,2147570066,101,2,13,14977
1339100289,5811,997.2800292968750000,42.1566505432128900,577.6232299804688000,3.9384191036224365,55.3833198547363300,55,98,102,78,84,15480,0,0,0,0,2147122715,2147778660,2147574829,2147571337,238,2,13,23673
1339103889,5809,1003.1799926757812000,42.0413017272949200,577.1356811523438000,3.9535980224609375,55.3927993774414060,54,113,101,78,83,15477,0,0,0,0,2147124946,2147777225,2147572946,2147573202,287,2,13,24137
1339107489,5810,1005.0700073242188000,41.5107002258300800,576.8286132812500000,3.9631600379943848,55.4669914245605500,55,100,102,78,84,15478,0,0,0,0,2147120813,2147774537,2147573476,2147571428,67,2,13,12135
1339111089,5809,1004.2199707031250000,41.3478507995605500,577.5744018554688000,3.9399380683898926,55.4998588562011700,55,99,101,78,83,15478,0,0,0,0,2147122404,2147775936,2147575542,2147572123,104,2,13,8744
1339114689,5811,1006.0300292968750000,41.3189201354980500,577.8283081054688000,3.9320299625396730,55.5074996948242200,55,99,101,79,85,15478,0,0,0,0,2147124022,2147775954,2147571254,2147572333,3470,2,13,3461
1339118289,5811,1010.9899902343750000,41.4345207214355500,576.4057006835938000,3.9763259887695312,55.4739494323730500,55,98,101,78,85,15475,0,0,0,0,2147123977,2147772534,2147574308,2147569261,39,2,13,46360
1339121889,5809,1011.2999877929688000,40.6798782348632800,576.0673828125000000,3.9868559837341310,55.5829086303710940,54,99,101,78,84,15477,0,0,0,0,2147125184,2147769216,2147575926,2147572297,3392,2,13,38973
1339125489,5806,1007.2399902343750000,40.8940200805664060,577.7398071289062000,3.9347860813140870,55.5699005126953100,56,98,101,77,83,15476,0,0,0,0,2147121344,2147775213,2147575680,2147572681,3517,2,13,32685
1339129089,5811,1010.4000244140625000,41.0722694396972660,577.4177856445312000,3.9448149204254150,55.5388908386230500,56,100,101,78,85,15477,0,0,0,0,2147119323,2147770102,2147571245,2147571291,54,2,13,63274
1339132689,5810,1010.8300170898438000,41.2399597167968750,577.2324218750000000,3.9505860805511475,55.5119209289550800,56,121,100,79,84,15477,0,0,0,0,2147121993,2147777170,2147572827,2147573970,3541,2,13,5299
1339136289,5808,1010.9799804687500000,41.5320892333984400,577.1760253906250000,3.9523448944091797,55.4681205749511700,54,99,101,78,83,15477,0,0,0,0,2147122313,2147774372,2147576109,2147568356,107,2,13,19361
1339139889,5811,1009.1599731445312000,40.9342803955078100,576.6135864257812000,3.9698541164398193,55.5497283935546900,55,100,101,77,84,15474,0,0,0,0,2147122313,2147773778,2147575579,2147574546,3041,2,13,49217
1339143489,5808,1007.7999877929688000,41.0491714477539060,576.6968994140625000,3.9672598838806152,55.5329208374023440,54,98,100,79,85,15476,0,0,0,0,2147124800,2147777846,2147572681,2147569280,407,2,13,42348
1339147089,5810,1020.4699707031250000,41.5269699096679700,576.2661743164062000,3.9806671142578125,55.4554710388183600,54,99,101,79,83,15477,0,0,0,0,2147123254,2147770825,2147573933,2147573961,3570,2,13,6901
1339150689,5807,1021.4099731445312000,41.6311988830566400,576.7935180664062000,3.9642519950866700,55.4488487243652340,55,98,102,78,84,15474,0,0,0,0,2147122624,2147772608,2147571090,2147568329,102,2,13,20118
1339154289,5807,1011.8300170898438000,40.1873092651367200,576.5325927734375000,3.9723761081695557,55.6549606323242200,55,99,101,79,83,15473,0,0,0,0,2147122230,2147773732,2147571977,2147573056,249,2,13,37630
1339157889,5808,1012.7399902343750000,42.0789794921875000,578.0681762695312000,3.9245610237121580,55.3987617492675800,55,100,101,78,83,15474,0,0,0,0,2147122907,2147774427,2147572754,2147572754,3550,2,13,780
1339161489,5808,1012.7299804687500000,41.7655906677246100,577.4182128906250000,3.9448010921478270,55.4380798339843750,54,100,101,79,85,15477,0,0,0,0,2147125348,2147774381,2147573714,2147570038,274,2,13,50011
1339165089,5808,1013.3800048828125000,40.9178085327148440,577.2598266601562000,3.9497361183166504,55.5593910217285160,55,98,101,78,85,15474,0,0,0,0,2147122413,2147772955,2147576228,2147572754,144,2,13,41204
1339168689,5811,1019.1099853515625000,41.1250381469726560,576.3975830078125000,3.9765760898590090,55.5145912170410160,55,99,101,76,84,15474,0,0,0,0,2147121883,2147775232,2147579072,2147571227,17,2,13,45389
1339172289,5807,1011.7000122070312000,41.2438697814941400,577.6682128906250000,3.9370160102844240,55.5120582580566400,54,98,101,79,84,15469,0,0,0,0,2147122011,2147769380,2147567296,2147571648,373,2,13,17669
1339175889,5808,1011.4899902343750000,41.6513710021972660,577.6386718750000000,3.9379370212554930,55.4555091857910160,55,96,100,78,84,15468,0,0,0,0,2147124918,2147774070,2147577033,2147570806,231,2,13,58048
1339179489,5810,1003.6099853515625000,41.3452186584472660,577.9774780273438000,3.9273850917816160,55.4997901916503900,55,99,101,78,84,15471,0,0,0,0,2147119835,2147778980,2147572288,2147572708,684,2,13,8680
1339183089,5811,1012.3300170898438000,41.7805290222168000,578.3546752929688000,3.9156339168548584,55.4408912658691400,54,98,101,79,84,15472,0,0,0,0,2147122249,2147772891,2147573933,2147572315,10,2,13,49759
1339183555,5812,1012.0499877929688000,42.5266914367675800,578.1685180664062000,3.9214339256286620,55.3311080932617200,55,99,101,78,84,15466,0,0,0,0,2147122166,2147776603,2147573952,2147570075,80,2,13,16384
